FLOCK 2K-40 (42865 NORAD) Tracking and Keplerian Element Data

This shows tracking and keplerian element data for the satellite.

Feedback or suggestion? Click here.




ElementValue
Catalog42865
NameFLOCK 2K-40
Epoch Orbit23483
Epoch Day261.8262604
Epoch Year2021
RAAN110.178
Inclination96.8419
Eccentricity0.0009781
Argument of Perigee89.2397
Mean Anonmoly270.9976
Mean Motion15.47567227
Decay Rate0.00016413
L11 42865U 17042AS 21261.82626040 .00016413 00000-0 31963-3 0 9999
L22 42865 96.8419 110.1780 0009781 89.2397 270.9976 15.47567227234831

Live tracking and technical data element details for FLOCK 2K-40 (NORAD 42865). FLOCK 2K-40 can be tracked NOW for your location showing map with azimuth and elevation plus other details from your city location.

Track the satellite on the map from your city or location and see movement details for azimuth, elevation, latitude, longitude, range, height, and movement on the map or in text.







IsCatalogInMostPopularTable: catalog: 42865, numindb: 586
Update: records affected: 1



GetName: 42865 FLOCK 2K-40

Hit Count: updated at: Fri, 24 Sep 2021 17:39:00 GMT